Location: Ostrava
(49.8330°N, 18.2830°E)
Time: 03:40:26
(UTC+02:00)

Cosmos 1400 Rocket - Visible Passes

Search period start: 20 June 2018 00:00
Search period end: 30 June 2018 00:00
Orbit: 522 x 570 km, 81.2° (Epoch: 19 June)

Date Brightness Start Highest point End Pass type
(mag) Time Alt. Az. Time Alt. Az. Time Alt. Az.
20 Jun 4.8 22:02:21 10° SW 22:05:59 31° WNW 22:09:34 10° N visible
21 Jun 4.9 21:56:49 10° SW 22:00:22 29° WNW 22:03:53 10° N visible
22 Jun 5.1 21:51:16 10° SW 21:54:44 28° WNW 21:58:11 10° N visible
23 Jun 5.2 21:45:43 10° SW 21:49:07 26° WNW 21:52:30 10° N visible
24 Jun 5.4 21:40:12 10° WSW 21:43:30 24° WNW 21:46:48 10° NNW visible
